sat.trackr.live / text

‹ back to catalog

KUIPER-00520

NORAD 69601 · 2026-140K

PAYLOAD ACTIVE UNKNOWN

§ Identity

Operator
Country
US
Launch date
2026-06-17
Launch site
FRGUI
Launch vehicle
Mass (kg)
RCS (m²)

External: N2YO · Heavens-Above · Gunter

§ Orbital elements

Epoch: 2026-09-20T04:15:33.164352Z

Period
97.52 min
Inclination
51.9024°
Eccentricity
0.0000863
Mean motion
14.76603771 rev/d
Perigee alt
639.5 km
Apogee alt
640.7 km
Semi-major
7,018.2 km
B*
1.2487e-4
RAAN
317.5961°
Arg perigee
193.6524°
Mean anomaly
166.4414°
Rev number
1,559

§ Raw data

KUIPER-005201 69601U 26140K   26263.17746718  .00000665  00000+0  12487-3 0  99962 69601  51.9024 317.5961 0000863 193.6524 166.4414 14.76603771 15592

JSON: /api/v1/satellites/69601 · /tle

For live sub-satellite position, see the globe view (requires WebGL).

§ Visibility from observer

Set your observer location to see the next 7 days of passes ≥ 10°. The values pass through the URL so the page stays shareable.

No JS? Fill the form by hand. The geolocation button needs JavaScript.